Weather History for Kuching, Malaysia

Change the Weather History Date:

Friday, January 31, 2014

  Actual Average Record
Temperature  
Mean Temperature 79 °F -  
Max Temperature 86 °F 86 °F - ()
Min Temperature 72 °F 73 °F - ()
Cooling Degree Days 14    
Growing Degree Days 29 (Base 50)    
Moisture  
Dew Point 72 °F    
Average Humidity 78    
Maximum Humidity 100    
Minimum Humidity 57    
Precipitation  
Precipitation 0.00 in 0.70 in - ()
Sea Level Pressure  
Sea Level Pressure 29.89 in    
Wind  
Wind Speed 5 mph ()    
Max Wind Speed 15 mph    
Max Gust Speed -    
Visibility 5.4 miles    
Events Rain    
T = Trace of Precipitation, MM = Missing Value Source: Averaged Metar Reports

Daily Weather History Graph

Daily Weather History Graph

Search for Another Location

Airport:

Trip Planner

Search our weather history database for the weather conditions in past years. The results will help you decide how hot, cold, wet, or windy it might be!

Date:

Astronomy

Jan. 31, 2014 Rise Set
Actual Time 6:50 AM MYT 6:53 PM MYT
Civil Twilight 6:28 AM MYT 7:15 PM MYT
Nautical Twilight 6:03 AM MYT 7:40 PM MYT
Astronomical Twilight 5:38 AM MYT 8:05 PM MYT
Moon 6:51 AM MYT (1/31) 7:16 PM MYT (1/31)
Length of Visible Light 12h 46m
Length of Day
12h 03m
New Moon, 0% of the Moon is Illuminated
Jan 31
New Moon
Feb 7
First Quarter
Feb 15
Full
Feb 23
Last Quarter
Mar 1
New

Hourly Weather History & Observations

Time (MYT) Temp. Heat Index Dew Point Humidity Pressure Visibility Wind Dir Wind Speed Gust Speed Precip Events Conditions
12:00 AM 77.0 °F - 71.6 °F 83% 29.89 in 3.7 mi WNW 3.5 mph - N/A   Mostly Cloudy
12:30 AM 77.0 °F - 71.6 °F 83% 29.89 in 3.7 mi NW 3.5 mph - N/A   Mostly Cloudy
1:00 AM 77.0 °F - 71.6 °F 83% 29.89 in 1.9 mi West 2.3 mph - N/A   Smoke
1:30 AM 75.2 °F - 71.6 °F 89% 29.89 in 3.1 mi NNW 3.5 mph - N/A   Smoke
2:00 AM 76 °F - 72 °F 84% 29.90 in 5 mi NW 3.5 mph - -   Smoke
2:00 AM 75.2 °F - 71.6 °F 89% 29.89 in 5.0 mi NW 3.5 mph - N/A   Mostly Cloudy
2:30 AM 75.2 °F - 73.4 °F 94% 29.89 in 5.0 mi SW 3.5 mph - N/A   Mostly Cloudy
3:00 AM 75.2 °F - 71.6 °F 89% 29.89 in 5.0 mi WSW 2.3 mph - N/A   Mostly Cloudy
3:30 AM 75.2 °F - 71.6 °F 89% 29.89 in 6.2 mi WSW 2.3 mph - N/A   Mostly Cloudy
4:00 AM 75.2 °F - 71.6 °F 89% 29.86 in 6.2 mi West 1.2 mph - N/A   Mostly Cloudy
4:30 AM 75.2 °F - 71.6 °F 89% 29.86 in 6.2 mi West 2.3 mph - N/A   Mostly Cloudy
5:00 AM 74 °F - 72 °F 93% 29.88 in 7 mi South 2.3 mph - -   Partly Cloudy
5:00 AM 73.4 °F - 71.6 °F 94% 29.86 in 6.2 mi South 2.3 mph - N/A   Mostly Cloudy
5:30 AM 73.4 °F - 71.6 °F 94% 29.89 in 5.0 mi Calm Calm - N/A   Mostly Cloudy
6:00 AM 73.4 °F - 73.4 °F 100% 29.89 in 5.0 mi SW 3.5 mph - N/A   Mostly Cloudy
6:30 AM 73.4 °F - 71.6 °F 94% 29.89 in 3.7 mi SSE 1.2 mph - N/A   Mostly Cloudy
7:00 AM 73.4 °F - 71.6 °F 94% 29.89 in 3.7 mi West 1.2 mph - N/A   Mostly Cloudy
7:30 AM 73.4 °F - 71.6 °F 94% 29.89 in 3.7 mi WNW 1.2 mph - N/A   Mostly Cloudy
8:00 AM 76 °F - 73 °F 86% 29.93 in 4 mi SSW 2.3 mph - -   Haze
8:00 AM 77.0 °F - 73.4 °F 89% 29.92 in 3.7 mi SSW 2.3 mph - N/A   Mostly Cloudy
8:30 AM 77.0 °F - 73.4 °F 89% 29.92 in 3.7 mi SW 2.3 mph - N/A Rain Light Rain
9:00 AM 78.8 °F - 73.4 °F 83% 29.95 in 5.0 mi NNE 1.2 mph - N/A   Mostly Cloudy
9:30 AM 80.6 °F 85.4 °F 73.4 °F 79% 29.95 in 4.3 mi ENE 2.3 mph - N/A   Mostly Cloudy
10:00 AM 80.6 °F 85.4 °F 73.4 °F 79% 29.95 in 4.3 mi NNE 6.9 mph - N/A   Mostly Cloudy
10:30 AM 80.6 °F 84.6 °F 71.6 °F 74% 29.92 in 4.3 mi NNW 9.2 mph - N/A   Mostly Cloudy
11:00 AM 81 °F - 72 °F 67% 29.94 in 6 mi NNW 9.2 mph - -   Partly Cloudy
11:00 AM 80.6 °F 84.6 °F 71.6 °F 74% 29.92 in 6.2 mi NNW 9.2 mph - N/A   Mostly Cloudy
11:30 AM 82.4 °F 87.2 °F 71.6 °F 70% 29.92 in 6.2 mi NNW 9.2 mph - N/A   Mostly Cloudy
12:00 PM 84.2 °F 89.6 °F 71.6 °F 66% 29.92 in 6.2 mi NNW 11.5 mph - N/A   Mostly Cloudy
12:30 PM 84.2 °F 89.6 °F 71.6 °F 66% 29.92 in 6.2 mi NNW 11.5 mph - N/A   Mostly Cloudy
1:00 PM 84.2 °F 89.6 °F 71.6 °F 66% 29.89 in 6.2 mi North 11.5 mph - N/A   Mostly Cloudy
1:30 PM 86.0 °F 91.8 °F 71.6 °F 62% 29.86 in 6.2 mi NNW 15.0 mph - N/A   Mostly Cloudy
2:00 PM 83 °F - 70 °F 57% 29.87 in 6 mi North 11.5 mph - -   Haze
2:00 PM 82.4 °F 86.3 °F 69.8 °F 66% 29.86 in 6.2 mi North 11.5 mph - N/A   Mostly Cloudy
2:30 PM 84.2 °F 88.4 °F 69.8 °F 62% 29.86 in 6.2 mi North 10.4 mph - N/A   Mostly Cloudy
3:00 PM 86.0 °F 90.4 °F 69.8 °F 58% 29.83 in 6.2 mi North 9.2 mph - N/A   Mostly Cloudy
3:30 PM 84.2 °F 88.4 °F 69.8 °F 62% 29.83 in 6.2 mi North 10.4 mph - N/A   Mostly Cloudy
4:00 PM 86.0 °F 90.4 °F 69.8 °F 58% 29.83 in 6.2 mi North 10.4 mph - N/A   Mostly Cloudy
4:30 PM 84.2 °F 89.6 °F 71.6 °F 66% 29.83 in 6.2 mi North 11.5 mph - N/A   Mostly Cloudy
5:00 PM 82 °F - 71 °F 60% 29.85 in 6 mi North 10.4 mph - -   Haze
5:00 PM 82.4 °F 86.3 °F 69.8 °F 66% 29.83 in 6.2 mi North 10.4 mph - N/A   Mostly Cloudy
5:30 PM 80.6 °F 83.9 °F 69.8 °F 70% 29.83 in 6.2 mi North 9.2 mph - N/A   Mostly Cloudy
6:00 PM 80.6 °F 84.6 °F 71.6 °F 74% 29.86 in 6.2 mi North 10.4 mph - N/A   Mostly Cloudy
6:30 PM 80.6 °F 84.6 °F 71.6 °F 74% 29.86 in 4.3 mi NNE 9.2 mph - N/A   Mostly Cloudy
7:00 PM 78.8 °F - 71.6 °F 78% 29.86 in 5.0 mi North 8.1 mph - N/A   Mostly Cloudy
7:30 PM 78.8 °F - 71.6 °F 78% 29.86 in 5.0 mi North 5.8 mph - N/A   Mostly Cloudy
8:00 PM 79 °F - 71 °F 72% 29.88 in 5 mi North 6.9 mph - -   Haze
8:00 PM 78.8 °F - 71.6 °F 78% 29.86 in 5.0 mi North 6.9 mph - N/A   Mostly Cloudy
8:30 PM 78.8 °F - 71.6 °F 78% 29.89 in 6.2 mi North 8.1 mph - N/A   Mostly Cloudy
9:00 PM 78.8 °F - 71.6 °F 78% 29.89 in 6.2 mi NNW 6.9 mph - N/A   Mostly Cloudy
9:30 PM 78.8 °F - 71.6 °F 78% 29.89 in 6.2 mi North 6.9 mph - N/A   Mostly Cloudy
10:00 PM 78.8 °F - 71.6 °F 78% 29.89 in 6.2 mi North 4.6 mph - N/A   Mostly Cloudy
10:30 PM 78.8 °F - 71.6 °F 78% 29.89 in 6.2 mi North 4.6 mph - N/A   Mostly Cloudy
11:00 PM 78 °F - 72 °F 75% 29.91 in 9 mi North 3.5 mph - -   Partly Cloudy
11:00 PM 77.0 °F - 71.6 °F 83% 29.89 in 6.2 mi North 3.5 mph - N/A   Mostly Cloudy
11:30 PM 77.0 °F - 71.6 °F 83% 29.89 in 6.2 mi North 4.6 mph - N/A   Mostly Cloudy